This demonstration page uses our WeatherBlox Daily Observations layout. Learn more.

Left ArrowRight Arrow

Hourly Observations for November 22, 2021

Temp ( °F °C ) Dew Point ( °F °C ) Humidity (%) Winds ( mph kmh ) Pressure ( in mb ) Visibility ( mi km ) Precip ( " mm )
12:48 am 00:48 Cloudy with Light Rain 57 14 54 12 88 88 N 8 13 30.06 1018 7 11 0.02 0.51
12:53 am 00:53 Cloudy with Rain 57 13.9 54 12.2 90 90 N 9 15 30.05 1018 5 8 0.05 1.27
1:10 am 01:10 Cloudy with Heavy Rain 56 13.3 54 12.2 93 93 NNW 5 7 30.06 1018 3 5 0.12 3.05
1:53 am 01:53 Cloudy with Light Rain 56 13.3 54 12.2 93 93 Calm 30.03 1017 9 14 0.21 5.33
2:53 am 02:53 Cloudy with Rain 55 12.8 54 12.2 96 96 Calm 30.02 1017 5 8 0.05 1.27
3:43 am 03:43 Cloudy with Light Rain 55 12.8 54 12.2 96 96 WSW 3 6 30.02 1017 7 11 0.04 1.02
3:53 am 03:53 Cloudy with Light Rain 55 12.8 54 12.2 96 96 SW 3 6 30.01 1016 6 10 0.04 1.02
4:53 am 04:53 Cloudy with Light Rain 55 12.8 54 12.2 96 96 S 6 9 29.96 1014 10 16 0.05 1.27
5:06 am 05:06 Cloudy with Light Rain 55 12.8 54 12.2 96 96 SSW 3 6 29.96 1015 10 16 0.00 0.00
5:15 am 05:15 Cloudy with Light Rain 55 12.8 55 12.8 100 100 Calm 29.97 1015 10 16 0.00 0.00
5:30 am 05:30 Cloudy with Light Rain 55 12.8 53 11.7 93 93 Calm 29.96 1015 9 14 0.00 0.00
5:53 am 05:53 Cloudy 55 12.8 54 12.2 96 96 SW 3 6 29.98 1015 10 16 0.00 0.00
6:53 am 06:53 Cloudy 55 12.8 54 12.2 96 96 SSW 5 7 29.98 1015 10 16 0.00 0.00
7:53 am 07:53 Cloudy with Mist and Fog 55 12.8 53 11.7 93 93 WNW 8 13 30.00 1016 4 6 0.00 0.00
8:37 am 08:37 Cloudy 54 12.2 51 10.6 90 90 NW 7 11 30.03 1017 10 16 0.00 0.00
8:53 am 08:53 Cloudy 54 12.2 50 10 87 87 VRB 6 9 30.03 1017 10 16 0.00 0.00
9:53 am 09:53 Mostly Cloudy 52 11.1 47 8.3 83 83 NW 7 11 30.04 1017 10 16 0.00 0.00
10:53 am 10:53 Partly Cloudy 54 12.2 46 7.8 75 75 NNW 13 20 30.05 1018 10 16 0.00 0.00
11:05 am 11:05 Mostly Cloudy 54 12.2 45 7.2 72 72 NW 13 20 30.06 1018 10 16 0.00 0.00
11:17 am 11:17 Partly Cloudy 55 12.8 45 7.2 69 69 NNW 8 13 30.05 1018 10 16 0.00 0.00
11:53 am 11:53 Sunny 57 13.9 43 6.1 60 60 NW 17 28 30.03 1017 10 16 0.00 0.00
12:53 pm 12:53 Sunny 58 14.4 39 3.9 50 50 NNW 12 19 30.00 1016 10 16 0.00 0.00
1:53 pm 13:53 Sunny 60 15.6 37 2.8 42 42 NNW 14 22 29.98 1015 10 16 0.00 0.00
2:53 pm 14:53 Sunny 60 15.6 32 0 35 35 NW 18 30 29.97 1015 10 16 0.00 0.00
3:53 pm 15:53 Sunny 59 15 33 0.6 38 38 WNW 14 22 29.98 1015 10 16 0.00 0.00
4:53 pm 16:53 Sunny 57 13.9 33 0.6 41 41 NW 15 24 29.98 1015 10 16 0.00 0.00
5:53 pm 17:53 Clear 53 11.7 34 1.1 48 48 NW 10 17 30.00 1016 10 16 0.00 0.00
6:53 pm 18:53 Clear 50 10 30 -1.1 46 46 NW 10 17 30.02 1017 10 16 0.00 0.00
7:53 pm 19:53 Clear 48 8.9 27 -2.8 44 44 NNW 8 13 30.06 1018 10 16 0.00 0.00
8:53 pm 20:53 Clear 45 7.2 24 -4.4 44 44 NNW 8 13 30.08 1019 10 16 0.00 0.00
9:53 pm 21:53 Clear 43 6.1 22 -5.6 43 43 NNW 7 11 30.10 1019 10 16 0.00 0.00
10:53 pm 22:53 Clear 41 5 21 -6.1 45 45 NNW 7 11 30.11 1020 10 16 0.00 0.00
11:53 pm 23:53 Clear 40 4.4 21 -6.1 47 47 NNW 6 9 30.12 1020 10 16 0.00 0.00

Powered by AerisWeather